English version Home page |
Updated on May 7, 2015 |
|
軌道要素Epoch 2012 Dec. 19.0 TT = JDT 2456280.5 T 2012 Dec. 7.24026 TT MPC q 3.1587104 (2000.0) P Q z -0.0004528 Peri. 147.27406 +0.84721832 -0.26315992 +/-0.0000002 Node 235.21726 +0.27903592 +0.95964392 e 1.0014302 Incl. 34.18597 +0.45206202 -0.09914837 From 4326 observations 2012 May 13-2014 Mar. 21, mean residual 0".4.
|
星図
|
光度変化m1 = 1.6 + 5 logΔ + 20.0 log r [ ,0] ( 〜2012年12月 7日) m1 = 5.3 + 5 logΔ + 12.5 log r [0, ] (2012年12月 7日〜 )
|
軌道要素はM.P.E.C. 2014-R69に掲載されたものです。
|